Погода в Армении

Колумбия     4°32′04″N   75°40′42″W
темп.,
°C
ветер,
м/с
пор.,
м/с
влажн.,
%
обл.,
%
осадки,
мм/ч
давл.,
гПа
погр.,
м
14 апреля, ср
ср1401:00+15вюв2193100 4.1 101423
04:00+14в1191100 0.8 101321
07:00+16вюв1184100 0.8 101549
10:00+21з2170100 0.1 1015698
13:00+24з226386 0.8 10111011
16:00+23зюз0181100 2.8 1009325
19:00+18в2194100 9.1 101226
22:00+17вюв119683 2.1 101515
15 апреля, чт
чт1501:00+16вюв119572 2.7 101320
04:00+16в1194100 0.0 101318
07:00+17всв1192100 0.0 101450
10:00+21з217488 0.1 1014684
13:00+24з116849 1.6 1009872
16:00+20юв1189100 4.5 100852
19:00+17вюв119796 11.9 101230
22:00+17ююв0197100 4.6 101429
16 апреля, пт
пт1601:00+16вюв1197100 7.3 101322
04:00+16вюв1196100 1.1 101318
07:00+16в0196100 1.6 101538
10:00+17зсз1195100 0.8 1016249
13:00+20зсз2181100 1.4 1012651
16:00+20зюз128897 1.2 1010544
19:00+17юв1297100 4.6 1013106
22:00+16вюв1197100 7.1 101632
17 апреля, сб
сб1701:00+15вюв119838 7.3 101515
04:00+15в119775 0.6 101428
07:00+16в1197100 1.8 101640
10:00+17ссв119498 1.8 1017152
13:00+19с118598 2.3 1014414
16:00+19зсз0186100 0.7 1012245
19:00+17вюв119487 1.3 101416
22:00+17вюв1193100 0.3 101613
18 апреля, вс
вс1801:00+16всв1198100 2.6 101617
04:00+15св119798 0.2 101516
07:00+16вюв009786 0.5 101745
10:00+19сз218285 0.3 1016477
13:00+23сз216689 1.1 1012876
16:00+22ююз0172100 1.6 1010345
19:00+17в2188100 2.8 101337
22:00+17в1188100 0.4 101619